Weather History for Dover AFB, DE

Change the Weather History Date:

Friday, December 13, 2013

  Actual Average Record
Temperature  
Mean Temperature 32 °F -  
Max Temperature 41 °F 51 °F 67 °F (1979)
Min Temperature 22 °F 32 °F 9 °F (1960)
Degree Days  
Heating Degree Days 34    
Moisture  
Dew Point 21 °F    
Average Humidity 64    
Maximum Humidity 79    
Minimum Humidity 43    
Precipitation  
Precipitation 0.00 in - - ()
Sea Level Pressure  
Sea Level Pressure 30.26 in    
Wind  
Wind Speed 8 mph (SW)    
Max Wind Speed 18 mph    
Max Gust Speed 22 mph    
Visibility 10 miles    
Events      
Averages and records for this station are not official NWS values.
T = Trace of Precipitation, MM = Missing Value Source: NWS Daily Summary

Daily Weather History Graph

Daily Weather History Graph

Search for Another Location

Airport:

Trip Planner

Search our weather history database for the weather conditions in past years. The results will help you decide how hot, cold, wet, or windy it might be!

Date:

Astronomy

Dec. 13, 2013 Rise Set
Actual Time 7:12 AM EST 4:39 PM EST
Civil Twilight 6:42 AM EST 5:09 PM EST
Nautical Twilight 6:09 AM EST 5:43 PM EST
Astronomical Twilight 5:36 AM EST 6:15 PM EST
Moon 2:20 PM EST (12/13) 3:34 AM EST (12/13)
Length of Visible Light 10h 27m
Length of Day
9h 27m
Waxing Gibbous, 88% of the Moon is Illuminated
Dec 13
Waxing Gibbous
Dec 17
Full
Dec 25
Last Quarter
Jan 1
New
Jan 7
First Quarter

Hourly Weather History & Observations

Time (EST) Temp. Windchill Dew Point Humidity Pressure Visibility Wind Dir Wind Speed Gust Speed Precip Events Conditions
12:58 AM 22.6 °F 14.3 °F 16.5 °F 77% 30.22 in 10.0 mi SSW 6.9 mph - N/A   Clear
1:58 AM 24.8 °F 17.9 °F 18.5 °F 77% 30.22 in 10.0 mi South 5.8 mph - N/A   Clear
2:58 AM 26.1 °F 19.4 °F 19.2 °F 75% 30.22 in 10.0 mi SW 5.8 mph - N/A   Clear
3:58 AM 26.1 °F 17.6 °F 20.5 °F 79% 30.23 in 10.0 mi SW 8.1 mph - N/A   Scattered Clouds
4:58 AM 27.5 °F 20.2 °F 21.0 °F 77% 30.22 in 10.0 mi SW 6.9 mph - N/A   Scattered Clouds
5:58 AM 27.5 °F 20.2 °F 21.4 °F 78% 30.22 in 10.0 mi SSW 6.9 mph - N/A   Overcast
6:58 AM 28.6 °F 21.5 °F 20.8 °F 73% 30.25 in 10.0 mi SSW 6.9 mph - N/A   Overcast
7:58 AM 29.3 °F 23.2 °F 21.0 °F 71% 30.25 in 10.0 mi SSW 5.8 mph - N/A   Clear
8:58 AM 32.7 °F 23.9 °F 22.1 °F 65% 30.27 in 10.0 mi SW 11.5 mph - N/A   Clear
9:58 AM 35.8 °F 28.8 °F 20.3 °F 53% 30.27 in 10.0 mi WSW 9.2 mph - N/A   Clear
10:58 AM 38.5 °F 30.3 °F 19.0 °F 46% 30.26 in 10.0 mi West 13.8 mph 20.7 mph N/A   Clear
11:58 AM 39.4 °F 30.1 °F 19.2 °F 44% 30.24 in 10.0 mi West 18.4 mph - N/A   Clear
12:58 PM 40.3 °F 32.6 °F 19.8 °F 44% 30.24 in 10.0 mi West 13.8 mph 21.9 mph N/A   Clear
1:58 PM 40.8 °F 33.3 °F 19.9 °F 43% 30.22 in 10.0 mi West 13.8 mph 18.4 mph N/A   Clear
2:58 PM 41.5 °F 35.4 °F 21.2 °F 44% 30.22 in 10.0 mi West 10.4 mph - N/A   Clear
3:58 PM 39.4 °F 35.2 °F 20.5 °F 47% 30.23 in 10.0 mi West 5.8 mph - N/A   Clear
4:58 PM 36.9 °F 34.3 °F 20.5 °F 52% 30.24 in 10.0 mi WSW 3.5 mph - N/A   Clear
5:58 PM 35.8 °F 31.9 °F 21.0 °F 55% 30.28 in 10.0 mi WSW 4.6 mph - N/A   Clear
6:58 PM 34.0 °F 28.8 °F 21.0 °F 59% 30.29 in 10.0 mi SW 5.8 mph - N/A   Clear
7:58 PM 32.5 °F 28.1 °F 22.6 °F 67% 30.30 in 10.0 mi South 4.6 mph - N/A   Clear
8:58 PM 28.8 °F 20.9 °F 22.3 °F 77% 30.30 in 10.0 mi SSE 8.1 mph - N/A   Partly Cloudy
9:58 PM 30.0 °F 24.1 °F 24.3 °F 79% 30.32 in 10.0 mi South 5.8 mph - N/A   Overcast
10:58 PM 32.4 °F 29.1 °F 24.3 °F 72% 30.33 in 10.0 mi South 3.5 mph - N/A   Overcast
11:58 PM 31.3 °F - 24.3 °F 75% 30.32 in 10.0 mi Calm Calm - N/A   Clear